,,,PA_Meas_PMT16A,,PR_Meas_QMR101_102,,RH_Meas_QMH101,,SR_Meas_QMS101,,TA_Meas_QMH101,,GenWind,,GenWind,
date,time,status,PA,status,PR,status,RH,status,SR,status,TA,status,DirAvg,status,SpdAvg,
2013-02-13, 00:00:04,VALID,1009.13,VALID,0,VALID,104,VALID,0,VALID,24.7659,VALID,48,VALID,0.338672,
2013-02-13, 00:01:04,VALID,1009.15,VALID,0,VALID,104,VALID,0,VALID,24.7464,VALID,48,VALID,0.391406,
2013-02-13, 00:02:04,VALID,1009.14,VALID,0,VALID,104,VALID,0,VALID,24.7659,VALID,48,VALID,0.437109,
2013-02-13, 00:03:04,VALID,1009.13,VALID,0,VALID,104,VALID,0,VALID,24.7464,VALID,48,VALID,0.0917969,
2013-02-13, 00:04:04,VALID,1009.1,VALID,0,VALID,104,VALID,0,VALID,24.7269,VALID,48,VALID,0,
2013-02-13, 00:05:04,VALID,1009.09,VALID,0,VALID,104,VALID,0,VALID,24.7269,VALID,48,VALID,0,
2013-02-13, 00:06:04,VALID,1009.1,VALID,0,VALID,104,VALID,0,VALID,24.7269,VALID,49,VALID,0.059375,
2013-02-13, 00:07:04,VALID,1009.08,VALID,0,VALID,104,VALID,0,VALID,24.7074,VALID,48,VALID,0,
2013-02-13, 00:08:04,VALID,1009.08,VALID,0,VALID,104,VALID,0,VALID,24.7269,VALID,48,VALID,0,
2013-02-13, 00:09:04,VALID,1009.05,VALID,0,VALID,104,VALID,0,VALID,24.7269,VALID,49,VALID,0,
2013-02-13, 00:10:04,VALID,1009.03,VALID,0,VALID,104,VALID,0,VALID,24.7269,VALID,48,VALID,0.0820313,
2013-02-13, 00:11:04,VALID,1009.03,VALID,0,VALID,104,VALID,0.112112,VALID,24.7464,VALID,48,VALID,0.155469,
2013-02-13, 00:12:04,VALID,1009.01,VALID,0,VALID,104,VALID,0,VALID,24.7269,VALID,49,VALID,0.115234,
2013-02-13, 00:13:04,VALID,1008.98,VALID,0,VALID,104,VALID,0,VALID,24.7464,VALID,48,VALID,0,
2013-02-13, 00:14:04,VALID,1008.95,VALID,0,VALID,104,VALID,0,VALID,24.7269,VALID,48,VALID,0,
2013-02-13, 00:15:04,VALID,1008.92,VALID,0,VALID,104,VALID,0,VALID,24.7269,VALID,48,VALID,0,
2013-02-13, 00:16:04,VALID,1008.91,VALID,0,VALID,104,VALID,0,VALID,24.7074,VALID,49,VALID,0,
2013-02-13, 00:17:04,VALID,1008.91,VALID,0,VALID,104,VALID,0,VALID,24.6684,VALID,48,VALID,0,
2013-02-13, 00:18:04,VALID,1008.89,VALID,0,VALID,104,VALID,0,VALID,24.6879,VALID,49,VALID,0,
2013-02-13, 00:19:04,VALID,1008.88,VALID,0,VALID,104,VALID,0,VALID,24.6879,VALID,48,VALID,0,
2013-02-13, 00:20:04,VALID,1008.87,VALID,0,VALID,104,VALID,0,VALID,24.7074,VALID,48,VALID,0,
2013-02-13, 00:21:04,VALID,1008.84,VALID,0,VALID,104,VALID,0,VALID,24.6879,VALID,48,VALID,0,
2013-02-13, 00:22:04,VALID,1008.82,VALID,0,VALID,104,VALID,0.112112,VALID,24.6684,VALID,48,VALID,0,
2013-02-13, 00:23:04,VALID,1008.81,VALID,0,VALID,104,VALID,0,VALID,24.6489,VALID,48,VALID,0,
2013-02-13, 00:24:04,VALID,1008.78,VALID,0,VALID,104,VALID,0,VALID,24.6294,VALID,49,VALID,0,
2013-02-13, 00:25:04,VALID,1008.79,VALID,0,VALID,104,VALID,0,VALID,24.5905,VALID,48,VALID,0,
2013-02-13, 00:26:04,VALID,1008.79,VALID,0,VALID,104,VALID,0,VALID,24.571,VALID,49,VALID,0.0292969,
2013-02-13, 00:27:04,VALID,1008.78,VALID,0,VALID,104,VALID,0,VALID,24.5515,VALID,49,VALID,0.219531,
2013-02-13, 00:28:04,VALID,1008.77,VALID,0,VALID,104,VALID,0,VALID,24.5515,VALID,49,VALID,0.179297,
2013-02-13, 00:29:04,VALID,1008.77,VALID,0,VALID,104,VALID,0,VALID,24.532,VALID,48,VALID,0.213281,
2013-02-13, 00:30:04,VALID,1008.73,VALID,0,VALID,104,VALID,0,VALID,24.5125,VALID,49,VALID,0.185156,
2013-02-13, 00:31:04,VALID,1008.72,VALID,0,VALID,104,VALID,0,VALID,24.493,VALID,49,VALID,0.0828125,
2013-02-13, 00:32:04,VALID,1008.71,VALID,0,VALID,104,VALID,0,VALID,24.493,VALID,48,VALID,0.194531,
2013-02-13, 00:33:04,VALID,1008.71,VALID,0,VALID,104,VALID,0,VALID,24.5125,VALID,48,VALID,0.1125,
2013-02-13, 00:34:04,VALID,1008.69,VALID,0,VALID,104,VALID,0,VALID,24.493,VALID,49,VALID,0.0699219,
2013-02-13, 00:35:04,VALID,1008.68,VALID,0,VALID,104,VALID,0,VALID,24.493,VALID,49,VALID,0,
2013-02-13, 00:36:04,VALID,1008.66,VALID,0,VALID,104,VALID,0.112112,VALID,24.4717,VALID,48,VALID,0.0167969,
2013-02-13, 00:37:04,VALID,1008.69,VALID,0,VALID,104,VALID,0,VALID,24.4735,VALID,48,VALID,0,
2013-02-13, 00:38:04,VALID,1008.68,VALID,0,VALID,104,VALID,0,VALID,24.454,VALID,48,VALID,0,
2013-02-13, 00:39:04,VALID,1008.69,VALID,0,VALID,104,VALID,0,VALID,24.454,VALID,49,VALID,0,
2013-02-13, 00:40:04,VALID,1008.71,VALID,0,VALID,104,VALID,0,VALID,24.4327,VALID,49,VALID,0,
2013-02-13, 00:41:04,VALID,1008.69,VALID,0,VALID,104,VALID,0,VALID,24.454,VALID,48,VALID,0,
2013-02-13, 00:42:04,VALID,1008.68,VALID,0,VALID,104,VALID,0,VALID,24.454,VALID,49,VALID,0,
2013-02-13, 00:43:04,VALID,1008.71,VALID,0,VALID,104,VALID,0,VALID,24.4132,VALID,49,VALID,0,
2013-02-13, 00:44:04,VALID,1008.71,VALID,0,VALID,104,VALID,0,VALID,24.415,VALID,49,VALID,0,
2013-02-13, 00:45:04,VALID,1008.7,VALID,0,VALID,104,VALID,0,VALID,24.415,VALID,48,VALID,0,
2013-02-13, 00:46:04,VALID,1008.7,VALID,0,VALID,104,VALID,0,VALID,24.415,VALID,48,VALID,0,
2013-02-13, 00:47:04,VALID,1008.69,VALID,0,VALID,104,VALID,0,VALID,24.415,VALID,47,VALID,0,
2013-02-13, 00:48:04,VALID,1008.69,VALID,0,VALID,104,VALID,0,VALID,24.415,VALID,49,VALID,0,
2013-02-13, 00:49:04,VALID,1008.71,VALID,0,VALID,104,VALID,0,VALID,24.4364,VALID,48,VALID,0,
2013-02-13, 00:50:04,VALID,1008.71,VALID,0,VALID,104,VALID,0,VALID,24.415,VALID,49,VALID,0,
2013-02-13, 00:51:04,VALID,1008.7,VALID,0,VALID,104,VALID,0,VALID,24.3937,VALID,48,VALID,0,
2013-02-13, 00:52:04,VALID,1008.69,VALID,0,VALID,104,VALID,0,VALID,24.3956,VALID,48,VALID,0,
2013-02-13, 00:53:04,VALID,1008.69,VALID,0,VALID,104,VALID,0,VALID,24.3956,VALID,48,VALID,0,
2013-02-13, 00:54:04,VALID,1008.69,VALID,0,VALID,104,VALID,0,VALID,24.3956,VALID,48,VALID,0,
2013-02-13, 00:55:04,VALID,1008.67,VALID,0,VALID,104,VALID,0,VALID,24.3761,VALID,49,VALID,0,
2013-02-13, 00:56:04,VALID,1008.67,VALID,0,VALID,104,VALID,0,VALID,24.3956,VALID,50,VALID,0,
2013-02-13, 00:57:04,VALID,1008.65,VALID,0,VALID,104,VALID,0,VALID,24.3566,VALID,48,VALID,0,
2013-02-13, 00:58:04,VALID,1008.64,VALID,0,VALID,104,VALID,0,VALID,24.3566,VALID,49,VALID,0,
2013-02-13, 00:59:04,VALID,1008.65,VALID,0,VALID,104,VALID,0,VALID,24.3371,VALID,49,VALID,0,
2013-02-13, 01:00:04,VALID,1008.65,VALID,0,VALID,104,VALID,0,VALID,24.3176,VALID,48,VALID,0,
2013-02-13, 01:01:04,VALID,1008.64,VALID,0,VALID,104,VALID,0,VALID,24.2981,VALID,49,VALID,0,
2013-02-13, 01:02:04,VALID,1008.63,VALID,0,VALID,104,VALID,0,VALID,24.3176,VALID,48,VALID,0,
2013-02-13, 01:03:04,VALID,1008.61,VALID,0,VALID,104,VALID,0,VALID,24.3761,VALID,49,VALID,0.295312,
2013-02-13, 01:04:04,VALID,1008.59,VALID,0,VALID,104,VALID,0,VALID,24.3956,VALID,49,VALID,0.410547,
2013-02-13, 01:05:04,VALID,1008.59,VALID,0,VALID,104,VALID,0,VALID,24.415,VALID,49,VALID,0.540234,
2013-02-13, 01:06:04,VALID,1008.55,VALID,0,VALID,104,VALID,0,VALID,24.454,VALID,48,VALID,0.525781,
2013-02-13, 01:07:04,VALID,1008.56,VALID,0,VALID,104,VALID,0,VALID,24.4522,VALID,208,VALID,0.629297,
2013-02-13, 01:08:04,VALID,1008.54,VALID,0,VALID,104,VALID,0,VALID,24.493,VALID,207,VALID,0.462891,
2013-02-13, 01:09:04,VALID,1008.53,VALID,0,VALID,104,VALID,0,VALID,24.4522,VALID,208,VALID,0.428906,
2013-02-13, 01:10:04,VALID,1008.52,VALID,0,VALID,104,VALID,0,VALID,24.4735,VALID,208,VALID,0.212891,
2013-02-13, 01:11:04,VALID,1008.51,VALID,0,VALID,104,VALID,0,VALID,24.4132,VALID,208,VALID,0.210938,
2013-02-13, 01:12:04,VALID,1008.51,VALID,0,VALID,104,VALID,0,VALID,24.415,VALID,207,VALID,0.38125,
2013-02-13, 01:13:04,VALID,1008.5,VALID,0,VALID,104,VALID,0,VALID,24.415,VALID,208,VALID,0.207422,
2013-02-13, 01:14:04,VALID,1008.49,VALID,0,VALID,104,VALID,0,VALID,24.3937,VALID,208,VALID,0.322266,
2013-02-13, 01:15:04,VALID,1008.48,VALID,0,VALID,104,VALID,0,VALID,24.415,VALID,208,VALID,0.182031,
2013-02-13, 01:16:04,VALID,1008.48,VALID,0,VALID,104,VALID,0,VALID,24.415,VALID,208,VALID,0.04375,
2013-02-13, 01:17:04,VALID,1008.5,VALID,0,VALID,104,VALID,0,VALID,24.3956,VALID,208,VALID,0,
2013-02-13, 01:18:04,VALID,1008.47,VALID,0,VALID,104,VALID,0,VALID,24.3956,VALID,208,VALID,0,
2013-02-13, 01:19:04,VALID,1008.48,VALID,0,VALID,104,VALID,0,VALID,24.3956,VALID,208,VALID,0.0496094,
2013-02-13, 01:20:04,VALID,1008.48,VALID,0,VALID,104,VALID,0,VALID,24.3547,VALID,208,VALID,0,
2013-02-13, 01:21:04,VALID,1008.48,VALID,0,VALID,104,VALID,0,VALID,24.3742,VALID,208,VALID,0.0117188,
2013-02-13, 01:22:04,VALID,1008.45,VALID,0,VALID,104,VALID,0,VALID,24.415,VALID,208,VALID,0.174609,
2013-02-13, 01:23:04,VALID,1008.47,VALID,0,VALID,104,VALID,0,VALID,24.4345,VALID,208,VALID,0.214062,
2013-02-13, 01:24:04,VALID,1008.48,VALID,0,VALID,104,VALID,0,VALID,24.4735,VALID,208,VALID,0.167187,
2013-02-13, 01:25:04,VALID,1008.5,VALID,0,VALID,104,VALID,0,VALID,24.454,VALID,208,VALID,0.112891,
2013-02-13, 01:26:04,VALID,1008.48,VALID,0,VALID,104,VALID,0.112112,VALID,24.4717,VALID,208,VALID,0.0757812,
2013-02-13, 01:27:04,VALID,1008.47,VALID,0,VALID,104,VALID,0,VALID,24.4911,VALID,208,VALID,0.116016,
2013-02-13, 01:28:04,VALID,1008.47,VALID,0,VALID,104,VALID,0,VALID,24.4911,VALID,208,VALID,0.368359,
2013-02-13, 01:29:04,VALID,1008.49,VALID,0,VALID,104,VALID,0,VALID,24.5125,VALID,208,VALID,0.342578,
2013-02-13, 01:30:04,VALID,1008.47,VALID,0,VALID,104,VALID,0,VALID,24.5106,VALID,208,VALID,0.323047,
2013-02-13, 01:31:04,VALID,1008.48,VALID,0,VALID,104,VALID,0,VALID,24.532,VALID,208,VALID,0.320313,
2013-02-13, 01:32:04,VALID,1008.43,VALID,0,VALID,104,VALID,0,VALID,24.5106,VALID,208,VALID,0.285937,
2013-02-13, 01:33:04,VALID,1008.42,VALID,0,VALID,104,VALID,0,VALID,24.532,VALID,208,VALID,0.130859,
2013-02-13, 01:34:04,VALID,1008.4,VALID,0,VALID,104,VALID,0,VALID,24.532,VALID,208,VALID,0.271094,
2013-02-13, 01:35:04,VALID,1008.4,VALID,0,VALID,104,VALID,0,VALID,24.5301,VALID,207,VALID,0.185937,
2013-02-13, 01:36:04,VALID,1008.37,VALID,0,VALID,104,VALID,0,VALID,24.5515,VALID,208,VALID,0.0667969,
2013-02-13, 01:37:04,VALID,1008.35,VALID,0,VALID,104,VALID,0,VALID,24.5515,VALID,208,VALID,0,
2013-02-13, 01:38:04,VALID,1008.36,VALID,0,VALID,104,VALID,0,VALID,24.571,VALID,208,VALID,0,
2013-02-13, 01:39:04,VALID,1008.32,VALID,0,VALID,104,VALID,0,VALID,24.571,VALID,208,VALID,0,
2013-02-13, 01:40:04,VALID,1008.3,VALID,0,VALID,104,VALID,0,VALID,24.5905,VALID,208,VALID,0.291797,
2013-02-13, 01:41:04,VALID,1008.26,VALID,0,VALID,104,VALID,0,VALID,24.5496,VALID,208,VALID,0.0308594,
2013-02-13, 01:42:04,VALID,1008.26,VALID,0,VALID,104,VALID,0,VALID,24.5905,VALID,208,VALID,0,
2013-02-13, 01:43:04,VALID,1008.22,VALID,0,VALID,104,VALID,0,VALID,24.571,VALID,208,VALID,0,
2013-02-13, 01:44:04,VALID,1008.2,VALID,0,VALID,104,VALID,0,VALID,24.5905,VALID,208,VALID,0.0480469,
2013-02-13, 01:45:04,VALID,1008.17,VALID,0,VALID,104,VALID,0,VALID,24.5905,VALID,208,VALID,0.145703,
2013-02-13, 01:46:04,VALID,1008.16,VALID,0,VALID,104,VALID,0,VALID,24.6118,VALID,208,VALID,0,
2013-02-13, 01:47:04,VALID,1008.16,VALID,0,VALID,104,VALID,0.112112,VALID,24.6099,VALID,208,VALID,0,
2013-02-13, 01:48:04,VALID,1008.13,VALID,0,VALID,104,VALID,0,VALID,24.5905,VALID,208,VALID,0,
2013-02-13, 01:49:04,VALID,1008.11,VALID,0,VALID,104,VALID,0,VALID,24.571,VALID,208,VALID,0,
2013-02-13, 01:50:04,VALID,1008.1,VALID,0,VALID,104,VALID,0,VALID,24.5496,VALID,208,VALID,0,
2013-02-13, 01:51:04,VALID,1008.1,VALID,0,VALID,104,VALID,0,VALID,24.571,VALID,208,VALID,0,
2013-02-13, 01:52:04,VALID,1008.1,VALID,0,VALID,104,VALID,0,VALID,24.571,VALID,208,VALID,0,
2013-02-13, 01:53:04,VALID,1008.1,VALID,0,VALID,104,VALID,0,VALID,24.571,VALID,208,VALID,0,
2013-02-13, 01:54:04,VALID,1008.1,VALID,0,VALID,104,VALID,0,VALID,24.5496,VALID,208,VALID,0,
2013-02-13, 01:55:04,VALID,1008.08,VALID,0,VALID,104,VALID,0,VALID,24.5515,VALID,208,VALID,0,
2013-02-13, 01:56:04,VALID,1008.05,VALID,0,VALID,104,VALID,0,VALID,24.5515,VALID,208,VALID,0,
2013-02-13, 01:57:04,VALID,1008.05,VALID,0,VALID,104,VALID,0,VALID,24.5301,VALID,208,VALID,0,
2013-02-13, 01:58:04,VALID,1008,VALID,0,VALID,104,VALID,0,VALID,24.5515,VALID,208,VALID,0,
2013-02-13, 01:59:04,VALID,1007.97,VALID,0,VALID,104,VALID,0,VALID,24.5515,VALID,208,VALID,0,
2013-02-13, 02:00:04,VALID,1007.94,VALID,0,VALID,104,VALID,0,VALID,24.532,VALID,208,VALID,0,
2013-02-13, 02:01:04,VALID,1007.92,VALID,0,VALID,104,VALID,0,VALID,24.532,VALID,208,VALID,0,
2013-02-13, 02:02:04,VALID,1007.91,VALID,0,VALID,104,VALID,0,VALID,24.5125,VALID,208,VALID,0,
2013-02-13, 02:03:04,VALID,1007.91,VALID,0,VALID,104,VALID,0,VALID,24.5125,VALID,208,VALID,0,
2013-02-13, 02:04:04,VALID,1007.9,VALID,0,VALID,104,VALID,0,VALID,24.493,VALID,208,VALID,0,
2013-02-13, 02:05:04,VALID,1007.85,VALID,0,VALID,104,VALID,0,VALID,24.493,VALID,208,VALID,0,
2013-02-13, 02:06:04,VALID,1007.82,VALID,0,VALID,104,VALID,0,VALID,24.454,VALID,208,VALID,0,
2013-02-13, 02:07:04,VALID,1007.8,VALID,0,VALID,104,VALID,0,VALID,24.4327,VALID,208,VALID,0,
2013-02-13, 02:08:04,VALID,1007.8,VALID,0,VALID,104,VALID,0,VALID,24.4345,VALID,208,VALID,0,
2013-02-13, 02:09:04,VALID,1007.8,VALID,0,VALID,104,VALID,0,VALID,24.454,VALID,208,VALID,0,
2013-02-13, 02:10:04,VALID,1007.75,VALID,0,VALID,104,VALID,0,VALID,24.454,VALID,208,VALID,0,
2013-02-13, 02:11:04,VALID,1007.73,VALID,0,VALID,104,VALID,0,VALID,24.454,VALID,208,VALID,0,
2013-02-13, 02:12:04,VALID,1007.75,VALID,0,VALID,104,VALID,0,VALID,24.454,VALID,208,VALID,0,
2013-02-13, 02:13:04,VALID,1007.74,VALID,0,VALID,104,VALID,0,VALID,24.4327,VALID,208,VALID,0,
2013-02-13, 02:14:04,VALID,1007.71,VALID,0,VALID,104,VALID,0,VALID,24.454,VALID,208,VALID,0,
2013-02-13, 02:15:04,VALID,1007.75,VALID,0,VALID,104,VALID,0,VALID,24.4327,VALID,208,VALID,0,
2013-02-13, 02:16:04,VALID,1007.73,VALID,0,VALID,104,VALID,0,VALID,24.4345,VALID,208,VALID,0,
2013-02-13, 02:17:04,VALID,1007.76,VALID,0,VALID,104,VALID,0,VALID,24.4132,VALID,208,VALID,0,
2013-02-13, 02:18:04,VALID,1007.74,VALID,0,VALID,104,VALID,0,VALID,24.415,VALID,208,VALID,0,
2013-02-13, 02:19:04,VALID,1007.78,VALID,0,VALID,104,VALID,0,VALID,24.3937,VALID,208,VALID,0,
2013-02-13, 02:20:04,VALID,1007.81,VALID,0,VALID,104,VALID,0,VALID,24.4132,VALID,208,VALID,0.150391,
2013-02-13, 02:21:04,VALID,1007.8,VALID,0,VALID,104,VALID,0,VALID,24.415,VALID,208,VALID,0.273047,
2013-02-13, 02:22:04,VALID,1007.81,VALID,0,VALID,104,VALID,0,VALID,24.3937,VALID,208,VALID,0.114063,
2013-02-13, 02:23:04,VALID,1007.82,VALID,0,VALID,104,VALID,0,VALID,24.3937,VALID,208,VALID,0.00195313,
2013-02-13, 02:24:04,VALID,1007.8,VALID,0,VALID,104,VALID,0,VALID,24.415,VALID,208,VALID,0,
2013-02-13, 02:25:04,VALID,1007.77,VALID,0,VALID,104,VALID,0,VALID,24.3956,VALID,208,VALID,0,
2013-02-13, 02:26:04,VALID,1007.8,VALID,0,VALID,104,VALID,0,VALID,24.3547,VALID,208,VALID,0,
2013-02-13, 02:27:04,VALID,1007.81,VALID,0,VALID,104,VALID,0,VALID,24.3566,VALID,208,VALID,0,
2013-02-13, 02:28:04,VALID,1007.79,VALID,0,VALID,104,VALID,0,VALID,24.3352,VALID,208,VALID,0,
2013-02-13, 02:29:04,VALID,1007.83,VALID,0,VALID,104,VALID,0,VALID,24.3371,VALID,208,VALID,0,
2013-02-13, 02:30:04,VALID,1007.79,VALID,0,VALID,104,VALID,0,VALID,24.3371,VALID,208,VALID,0,
2013-02-13, 02:31:04,VALID,1007.81,VALID,0,VALID,104,VALID,0,VALID,24.3158,VALID,208,VALID,0,
2013-02-13, 02:32:04,VALID,1007.79,VALID,0,VALID,104,VALID,0,VALID,24.3371,VALID,208,VALID,0,
2013-02-13, 02:33:04,VALID,1007.81,VALID,0,VALID,104,VALID,0,VALID,24.3371,VALID,208,VALID,0,
2013-02-13, 02:34:04,VALID,1007.78,VALID,0,VALID,104,VALID,0,VALID,24.3176,VALID,208,VALID,0,
2013-02-13, 02:35:04,VALID,1007.79,VALID,0,VALID,104,VALID,0,VALID,24.3176,VALID,208,VALID,0,
2013-02-13, 02:36:04,VALID,1007.77,VALID,0,VALID,104,VALID,0,VALID,24.2981,VALID,208,VALID,0,
2013-02-13, 02:37:04,VALID,1007.76,VALID,0,VALID,104,VALID,0,VALID,24.3176,VALID,208,VALID,0,
2013-02-13, 02:38:04,VALID,1007.73,VALID,0,VALID,104,VALID,0,VALID,24.3176,VALID,208,VALID,0,
2013-02-13, 02:39:04,VALID,1007.71,VALID,0,VALID,104,VALID,0,VALID,24.2963,VALID,208,VALID,0,
2013-02-13, 02:40:04,VALID,1007.74,VALID,0,VALID,104,VALID,0,VALID,24.2981,VALID,208,VALID,0,
2013-02-13, 02:41:04,VALID,1007.67,VALID,0,VALID,104,VALID,0,VALID,24.3176,VALID,208,VALID,0,
2013-02-13, 02:42:04,VALID,1007.68,VALID,0,VALID,104,VALID,0,VALID,24.3176,VALID,208,VALID,0,
2013-02-13, 02:43:04,VALID,1007.68,VALID,0,VALID,104,VALID,0,VALID,24.2981,VALID,208,VALID,0,
2013-02-13, 02:44:04,VALID,1007.67,VALID,0,VALID,104,VALID,0,VALID,24.2786,VALID,208,VALID,0,
2013-02-13, 02:45:04,VALID,1007.67,VALID,0,VALID,104,VALID,0,VALID,24.2591,VALID,208,VALID,0,
2013-02-13, 02:46:04,VALID,1007.65,VALID,0,VALID,104,VALID,0,VALID,24.2396,VALID,208,VALID,0,
2013-02-13, 02:47:04,VALID,1007.64,VALID,0,VALID,104,VALID,0,VALID,24.2202,VALID,208,VALID,0,
2013-02-13, 02:48:04,VALID,1007.66,VALID,0,VALID,104,VALID,0,VALID,24.2202,VALID,208,VALID,0,
2013-02-13, 02:49:04,VALID,1007.63,VALID,0,VALID,104,VALID,0,VALID,24.1793,VALID,208,VALID,0,
2013-02-13, 02:50:04,VALID,1007.64,VALID,0,VALID,104,VALID,0,VALID,24.2007,VALID,208,VALID,0,
2013-02-13, 02:51:04,VALID,1007.64,VALID,0,VALID,104,VALID,0,VALID,24.1812,VALID,208,VALID,0,
2013-02-13, 02:52:04,VALID,1007.65,VALID,0,VALID,104,VALID,0,VALID,24.1617,VALID,208,VALID,0.0226563,
2013-02-13, 02:53:04,VALID,1007.63,VALID,0,VALID,104,VALID,0,VALID,24.1227,VALID,208,VALID,0.228516,
2013-02-13, 02:54:04,VALID,1007.63,VALID,0,VALID,104,VALID,0,VALID,24.1422,VALID,208,VALID,0,
2013-02-13, 02:55:04,VALID,1007.66,VALID,0,VALID,104,VALID,0,VALID,24.1227,VALID,208,VALID,0,
2013-02-13, 02:56:04,VALID,1007.66,VALID,0,VALID,104,VALID,0,VALID,24.1227,VALID,208,VALID,0,
2013-02-13, 02:57:04,VALID,1007.64,VALID,0,VALID,104,VALID,0,VALID,24.0643,VALID,208,VALID,0,
2013-02-13, 02:58:04,VALID,1007.62,VALID,0,VALID,104,VALID,0,VALID,24.0837,VALID,208,VALID,0,
2013-02-13, 02:59:04,VALID,1007.64,VALID,0,VALID,104,VALID,0,VALID,24.0643,VALID,208,VALID,0,
2013-02-13, 03:00:04,VALID,1007.63,VALID,0,VALID,104,VALID,0,VALID,24.0643,VALID,208,VALID,0,
2013-02-13, 03:01:04,VALID,1007.64,VALID,0,VALID,104,VALID,0,VALID,24.0448,VALID,208,VALID,0,
2013-02-13, 03:02:04,VALID,1007.64,VALID,0,VALID,104,VALID,0,VALID,24.0448,VALID,208,VALID,0,
2013-02-13, 03:03:04,VALID,1007.62,VALID,0,VALID,104,VALID,0,VALID,24.0253,VALID,208,VALID,0,
2013-02-13, 03:04:04,VALID,1007.65,VALID,0,VALID,104,VALID,0,VALID,24.0058,VALID,208,VALID,0,
2013-02-13, 03:05:04,VALID,1007.67,VALID,0,VALID,104,VALID,0,VALID,24.0058,VALID,208,VALID,0,
2013-02-13, 03:06:04,VALID,1007.68,VALID,0,VALID,104,VALID,0,VALID,24.0253,VALID,208,VALID,0,
2013-02-13, 03:07:04,VALID,1007.68,VALID,0,VALID,104,VALID,0,VALID,24.0253,VALID,208,VALID,0,
2013-02-13, 03:08:04,VALID,1007.7,VALID,0,VALID,104,VALID,0,VALID,24.0448,VALID,208,VALID,0.0910156,
2013-02-13, 03:09:04,VALID,1007.73,VALID,0,VALID,104,VALID,0,VALID,24.0643,VALID,208,VALID,0.296094,
2013-02-13, 03:10:04,VALID,1007.7,VALID,0,VALID,104,VALID,0,VALID,24.1032,VALID,184,VALID,0.494141,
2013-02-13, 03:11:04,VALID,1007.7,VALID,0,VALID,104,VALID,0,VALID,24.1032,VALID,184,VALID,0.390234,
2013-02-13, 03:12:04,VALID,1007.67,VALID,0,VALID,104,VALID,0,VALID,24.1227,VALID,184,VALID,0.410547,
2013-02-13, 03:13:04,VALID,1007.66,VALID,0,VALID,104,VALID,0,VALID,24.1032,VALID,184,VALID,0.0210938,
2013-02-13, 03:14:04,VALID,1007.64,VALID,0,VALID,104,VALID,0,VALID,24.1032,VALID,184,VALID,0,
2013-02-13, 03:15:04,VALID,1007.62,VALID,0,VALID,104,VALID,0,VALID,24.1227,VALID,184,VALID,0,
2013-02-13, 03:16:04,VALID,1007.64,VALID,0,VALID,104,VALID,0,VALID,24.1617,VALID,184,VALID,0,
2013-02-13, 03:17:04,VALID,1007.62,VALID,0,VALID,104,VALID,0,VALID,24.1617,VALID,184,VALID,0,
2013-02-13, 03:18:04,VALID,1007.63,VALID,0,VALID,104,VALID,0,VALID,24.1812,VALID,184,VALID,0,
2013-02-13, 03:19:04,VALID,1007.59,VALID,0,VALID,104,VALID,0,VALID,24.1422,VALID,184,VALID,0,
2013-02-13, 03:20:04,VALID,1007.59,VALID,0,VALID,104,VALID,0,VALID,24.1422,VALID,184,VALID,0,
2013-02-13, 03:21:04,VALID,1007.61,VALID,0,VALID,104,VALID,0,VALID,24.1227,VALID,184,VALID,0,
2013-02-13, 03:22:04,VALID,1007.61,VALID,0,VALID,104,VALID,0,VALID,24.1635,VALID,184,VALID,0.288281,
2013-02-13, 03:23:04,VALID,1007.6,VALID,0,VALID,104,VALID,0,VALID,24.1227,VALID,184,VALID,0.288281,
2013-02-13, 03:24:04,VALID,1007.57,VALID,0,VALID,104,VALID,0,VALID,24.1209,VALID,184,VALID,0.25,
2013-02-13, 03:25:04,VALID,1007.59,VALID,0,VALID,104,VALID,0,VALID,24.1617,VALID,184,VALID,0.341797,
2013-02-13, 03:26:04,VALID,1007.55,VALID,0,VALID,104,VALID,0,VALID,24.1812,VALID,184,VALID,0.358203,
2013-02-13, 03:27:04,VALID,1007.56,VALID,0,VALID,104,VALID,0,VALID,24.2007,VALID,184,VALID,0.389062,
2013-02-13, 03:28:04,VALID,1007.54,VALID,0,VALID,104,VALID,0,VALID,24.2007,VALID,184,VALID,0.569531,
2013-02-13, 03:29:04,VALID,1007.57,VALID,0,VALID,104,VALID,0,VALID,24.2202,VALID,184,VALID,0.142188,
2013-02-13, 03:30:04,VALID,1007.56,VALID,0,VALID,104,VALID,0,VALID,24.2202,VALID,184,VALID,0,
2013-02-13, 03:31:04,VALID,1007.57,VALID,0,VALID,104,VALID,0,VALID,24.2202,VALID,184,VALID,0.342187,
2013-02-13, 03:32:04,VALID,1007.58,VALID,0,VALID,104,VALID,0,VALID,24.2007,VALID,184,VALID,0.447656,
2013-02-13, 03:33:04,VALID,1007.57,VALID,0,VALID,104,VALID,0,VALID,24.2007,VALID,184,VALID,0.415234,
2013-02-13, 03:34:04,VALID,1007.57,VALID,0,VALID,104,VALID,0,VALID,24.1812,VALID,184,VALID,0.425,
2013-02-13, 03:35:04,VALID,1007.58,VALID,0,VALID,104,VALID,0.112112,VALID,24.1599,VALID,173,VALID,0.347266,
2013-02-13, 03:36:04,VALID,1007.56,VALID,0,VALID,104,VALID,0,VALID,24.2007,VALID,172,VALID,0.408984,
2013-02-13, 03:37:04,VALID,1007.55,VALID,0,VALID,104,VALID,0,VALID,24.2007,VALID,172,VALID,0.237891,
2013-02-13, 03:38:04,VALID,1007.55,VALID,0,VALID,104,VALID,0,VALID,24.2007,VALID,172,VALID,0.146094,
2013-02-13, 03:39:04,VALID,1007.53,VALID,0,VALID,104,VALID,0,VALID,24.2007,VALID,172,VALID,0.0265625,
2013-02-13, 03:40:04,VALID,1007.53,VALID,0,VALID,104,VALID,0,VALID,24.1617,VALID,172,VALID,0.163672,
2013-02-13, 03:41:04,VALID,1007.53,VALID,0,VALID,104,VALID,0,VALID,24.1617,VALID,172,VALID,0,
2013-02-13, 03:42:04,VALID,1007.53,VALID,0,VALID,104,VALID,0,VALID,24.1812,VALID,172,VALID,0.009375,
2013-02-13, 03:43:04,VALID,1007.5,VALID,0,VALID,104,VALID,0.112112,VALID,24.1812,VALID,172,VALID,0,
2013-02-13, 03:44:04,VALID,1007.52,VALID,0,VALID,104,VALID,0,VALID,24.1599,VALID,172,VALID,0.185547,
2013-02-13, 03:45:04,VALID,1007.53,VALID,0,VALID,104,VALID,0,VALID,24.1617,VALID,172,VALID,0.148438,
2013-02-13, 03:46:04,VALID,1007.53,VALID,0,VALID,104,VALID,0.112112,VALID,24.1599,VALID,172,VALID,0.122656,
2013-02-13, 03:47:04,VALID,1007.55,VALID,0,VALID,104,VALID,0,VALID,24.1812,VALID,172,VALID,0.360156,
2013-02-13, 03:48:04,VALID,1007.55,VALID,0,VALID,104,VALID,0,VALID,24.1617,VALID,172,VALID,0.19375,
2013-02-13, 03:49:04,VALID,1007.54,VALID,0,VALID,104,VALID,0,VALID,24.1617,VALID,172,VALID,0.212891,
2013-02-13, 03:50:04,VALID,1007.55,VALID,0,VALID,104,VALID,0,VALID,24.1617,VALID,172,VALID,0.337891,
2013-02-13, 03:51:04,VALID,1007.51,VALID,0,VALID,104,VALID,0,VALID,24.1617,VALID,172,VALID,0.0867188,
2013-02-13, 03:52:04,VALID,1007.52,VALID,0,VALID,104,VALID,0.112112,VALID,24.1422,VALID,172,VALID,0.19375,
2013-02-13, 03:53:04,VALID,1007.53,VALID,0,VALID,104,VALID,0,VALID,24.1422,VALID,172,VALID,0.160547,
2013-02-13, 03:54:04,VALID,1007.53,VALID,0,VALID,104,VALID,0,VALID,24.1404,VALID,172,VALID,0.194922,
2013-02-13, 03:55:04,VALID,1007.5,VALID,0,VALID,104,VALID,0,VALID,24.1617,VALID,172,VALID,0.165625,
2013-02-13, 03:56:04,VALID,1007.53,VALID,0,VALID,104,VALID,0.112112,VALID,24.1209,VALID,172,VALID,0,
2013-02-13, 03:57:04,VALID,1007.52,VALID,0,VALID,104,VALID,0.112112,VALID,24.1422,VALID,172,VALID,0,
2013-02-13, 03:58:04,VALID,1007.51,VALID,0,VALID,104,VALID,0.112112,VALID,24.1422,VALID,172,VALID,0,
2013-02-13, 03:59:04,VALID,1007.51,VALID,0,VALID,104,VALID,0,VALID,24.1422,VALID,172,VALID,0,
2013-02-13, 04:00:04,VALID,1007.51,VALID,0,VALID,104,VALID,0.112112,VALID,24.1014,VALID,172,VALID,0,
2013-02-13, 04:01:04,VALID,1007.49,VALID,0,VALID,104,VALID,0,VALID,24.1227,VALID,172,VALID,0.286719,
2013-02-13, 04:02:05,VALID,1007.48,VALID,0,VALID,104,VALID,0.112112,VALID,24.1032,VALID,172,VALID,0.413281,